Flag for United Kingdom Weather past 2 weeks in West Bromwich, England, United Kingdom

Now
52 °F

Clear.


Feels Like: 50 °F
Forecast: 47 / 62 °F
Wind: 6 mph from Northwest

Location: Birmingham / Airport

Current Time: Aug 23, 2014 at 1:39:32 AM

Latest Report: Aug 23, 2014 at 12:50 AM


Visibility: 10 mi

Pressure: 29.95 "Hg

Humidity: 72%

Dew point: 43 °F

Location of West BromwichLocation

Historic Weather in West Bromwich — Graph

°F

West Bromwich temperature yesterday

Maximum temperature yesterday: 63 °F (at 1:20 PM)
Minimum temperature yesterday: 52 °F (at 4:20 AM)
Average temperature yesterday: 57 °F

Past Weeks' High & Low Weather Summary

 TemperatureHumidityPressure
High73 °F (Aug 8, 1:20 PM)100% (Aug 10, 8:20 AM)30.15 "Hg (Aug 10, 8:20 AM)
Low45 °F (Aug 21, 3:20 AM)42% (Aug 18, 6:20 PM)29.27 "Hg (Aug 10, 11:50 AM)
Average59 °F71%29.80 "Hg
* Reported Aug 8 12:20 AM — Aug 23 12:20 AM, West Bromwich, Weather by CustomWeather, © 2014

Note: Actual official high and low records may vary slightly from our data, if they occured in-between our weather recording intervals... More about our weather records

Advertising

West Bromwich weather history for previous 24 hours

 ConditionsComfort  
Time TempWeatherWind HumidityBarometerVisibility
12:20 AM
Aug 23
54 °FPassing clouds.7 mph67%29.95 "HgN/A
11:50 PM
Aug 22
54 °FClear.8 mph72%29.95 "Hg10 mi
11:20 PM54 °FClear.7 mph67%29.95 "Hg10 mi
10:50 PM55 °FClear.7 mph63%29.95 "Hg10 mi
10:20 PM55 °FClear.8 mph63%29.95 "Hg10 mi
9:50 PM55 °FClear.8 mph63%29.92 "Hg10 mi
9:20 PM57 °FClear.10 mph59%29.92 "Hg10 mi
8:50 PM57 °FPassing clouds.9 mph59%29.92 "HgN/A
8:20 PM59 °FPassing clouds.12 mph59%29.92 "HgN/A
7:50 PM59 °FPassing clouds.9 mph59%29.89 "HgN/A
7:20 PM59 °FPassing clouds.9 mph59%29.89 "HgN/A
6:50 PM59 °FPassing clouds.10 mph59%29.89 "HgN/A
6:20 PM59 °FScattered clouds.14 mph59%29.89 "HgN/A
5:50 PM61 °FSunny.13 mph52%29.89 "Hg10 mi
5:20 PM61 °FPassing clouds.13 mph52%29.89 "HgN/A
4:50 PM61 °FPassing clouds.13 mph52%29.89 "HgN/A
4:20 PM61 °FPartly sunny.15 mph48%29.89 "HgN/A
3:50 PM61 °FBroken clouds.13 mph55%29.89 "HgN/A
3:20 PM63 °FScattered clouds.13 mph52%29.86 "HgN/A
2:50 PM63 °FPassing clouds.10 mph56%29.86 "HgN/A
2:20 PM61 °FScattered showers. Scattered clouds.14 mph59%29.86 "HgN/A
1:50 PM63 °FBroken clouds.12 mph49%29.86 "HgN/A
1:20 PM63 °FScattered clouds.9 mph52%29.86 "HgN/A
12:50 PM61 °FPassing clouds.9 mph55%29.86 "HgN/A
12:20 PM61 °FPassing clouds.12 mph55%29.86 "HgN/A
11:50 AM61 °FScattered clouds.10 mph55%29.83 "HgN/A
11:20 AM59 °FPassing clouds.10 mph63%29.83 "HgN/A
10:50 AM59 °FPassing clouds.12 mph63%29.83 "HgN/A
10:20 AM57 °FScattered clouds.9 mph67%29.83 "HgN/A
9:50 AM57 °FPartly sunny.12 mph67%29.83 "HgN/A
9:20 AM57 °FPartly sunny.10 mph67%29.80 "HgN/A
8:50 AM55 °FPassing clouds.7 mph77%29.80 "HgN/A
8:20 AM54 °FSunny.6 mph88%29.80 "Hg10 mi
7:50 AM54 °FSunny.6 mph88%29.80 "Hg10 mi
7:20 AM54 °FPassing clouds.5 mph88%29.80 "HgN/A
6:50 AM52 °FClear.5 mph94%29.80 "Hg10 mi
6:20 AM52 °FPassing clouds.6 mph94%29.77 "HgN/A
5:50 AM52 °FPassing clouds.5 mph94%29.77 "HgN/A
5:20 AM52 °FPassing clouds.5 mph94%29.77 "HgN/A
4:50 AM54 °FPartly cloudy.5 mph88%29.77 "HgN/A
4:20 AM52 °FPassing clouds.5 mph94%29.77 "HgN/A
3:20 AM54 °FPassing clouds.6 mph94%29.77 "HgN/A
2:50 AM54 °FPassing clouds.7 mph94%29.77 "HgN/A
2:20 AM54 °FPassing clouds.6 mph94%29.77 "HgN/A
1:50 AM54 °FPartly cloudy.7 mph94%29.77 "HgN/A
1:20 AM54 °FLight rain. Passing clouds.7 mph94%29.80 "HgN/A
Weather by CustomWeather, © 2014

See weather overviewHow to use our weather pages